When you browse on this site, cookies collect data to enhance your experience and personalize the content and advertising you see.
Visit our Privacy Policy to learn more. By continuing to use the site, you agree to this use of cookies and data.
  • In United Kingdom
  • List of Countries
  • For 7 days
  • Water Temperature
  • Satellite Maps
  • Weather Map
  • Weather Widgets
  • user-avatar
    Login

    Hourly Weather Banbridge

    Today, 23 January, Wednesday

    Time Temperature Precipitation Wind Pressure Humidity
    00:00 -2°C° 0 mm 2 mps 742 mmHg 88%
    01:00 -2°C° 0 mm 2 mps 742 mmHg 88%
    02:00 -2°C° 0 mm 3 mps 742 mmHg 88%
    03:00 -2°C° 0 mm 3 mps 742 mmHg 89%
    04:00 -2°C° 0 mm 3 mps 743 mmHg 88%
    05:00 -2°C° 0 mm 3 mps 743 mmHg 87%
    06:00 -2°C° 0 mm 2 mps 744 mmHg 87%
    07:00 -2°C° 0 mm 2 mps 744 mmHg 87%
    08:00 -1°C° 0 mm 2 mps 745 mmHg 87%
    09:00 -1°C° 0 mm 2 mps 745 mmHg 87%
    10:00 +1°C° 0 mm 2 mps 745 mmHg 83%
    11:00 +3°C° 0 mm 2 mps 745 mmHg 79%
    12:00 +4°C° 0 mm 2 mps 746 mmHg 76%
    13:00 +5°C° 0 mm 2 mps 746 mmHg 77%
    14:00 +5°C° 0 mm 2 mps 746 mmHg 79%
    15:00 +5°C° 0 mm 2 mps 746 mmHg 81%
    16:00 +5°C° 0 mm 2 mps 746 mmHg 85%
    17:00 +4°C° 0 mm 2 mps 746 mmHg 90%
    18:00 +3°C° 0 mm 2 mps 746 mmHg 94%
    19:00 +3°C° 0 mm 2 mps 746 mmHg 95%
    20:00 +3°C° 0 mm 2 mps 746 mmHg 96%
    21:00 +3°C° 0 mm 2 mps 747 mmHg 96%
    22:00 +4°C° 0.1 mm 2 mps 747 mmHg 96%
    23:00 +4°C° 0.1 mm 2 mps 747 mmHg 96%

    Tomorrow, 24 January, Thursday

    Time Temperature Precipitation Wind Pressure Humidity
    00:00 +3°C° 0.1 mm 3 mps 747 mmHg 96%
    01:00 +3°C° 0.1 mm 3 mps 748 mmHg 96%
    02:00 +3°C° 0.1 mm 3 mps 748 mmHg 96%
    03:00 +3°C° 0.1 mm 3 mps 748 mmHg 96%
    04:00 +3°C° 0 mm 3 mps 748 mmHg 97%
    05:00 +4°C° 0 mm 2 mps 748 mmHg 97%
    06:00 +5°C° 0 mm 2 mps 748 mmHg 97%
    07:00 +5°C° 0.4 mm 2 mps 749 mmHg 97%
    08:00 +5°C° 0.4 mm 2 mps 749 mmHg 97%
    09:00 +6°C° 0.4 mm 1 mps 749 mmHg 98%
    10:00 +6°C° 0.5 mm 1 mps 749 mmHg 98%
    11:00 +6°C° 0.5 mm 1 mps 750 mmHg 97%
    12:00 +6°C° 0.5 mm 1 mps 750 mmHg 97%
    13:00 +7°C° 0.6 mm 1 mps 750 mmHg 97%
    14:00 +7°C° 0.6 mm 1 mps 750 mmHg 97%
    15:00 +7°C° 0.6 mm 1 mps 750 mmHg 97%
    16:00 +7°C° 0.3 mm 1 mps 750 mmHg 97%
    17:00 +7°C° 0.3 mm 1 mps 751 mmHg 97%
    18:00 +7°C° 0.3 mm 2 mps 751 mmHg 97%
    19:00 +7°C° 0.1 mm 2 mps 751 mmHg 97%
    20:00 +7°C° 0.1 mm 2 mps 752 mmHg 97%
    21:00 +8°C° 0.1 mm 2 mps 752 mmHg 97%
    22:00 +8°C° 0 mm 3 mps 752 mmHg 97%
    23:00 +8°C° 0 mm 3 mps 752 mmHg 97%

    Day after tomorrow, 25 January, Friday

    Time Temperature Precipitation Wind Pressure Humidity
    00:00 +7°C° 0 mm 4 mps 752 mmHg 96%
    01:00 +7°C° 0 mm 4 mps 753 mmHg 96%
    02:00 +7°C° 0 mm 4 mps 753 mmHg 95%
    03:00 +7°C° 0 mm 5 mps 753 mmHg 95%
    04:00 +7°C° 0 mm 4 mps 753 mmHg 95%
    05:00 +7°C° 0 mm 4 mps 752 mmHg 95%
    06:00 +7°C° 0 mm 4 mps 752 mmHg 95%
    07:00 +7°C° 0 mm 4 mps 753 mmHg 95%
    08:00 +8°C° 0 mm 4 mps 753 mmHg 95%
    09:00 +8°C° 0 mm 5 mps 753 mmHg 94%
    10:00 +8°C° 0 mm 5 mps 753 mmHg 93%
    11:00 +8°C° 0 mm 5 mps 754 mmHg 92%
    12:00 +9°C° 0 mm 6 mps 754 mmHg 91%
    13:00 +9°C° 0 mm 6 mps 754 mmHg 90%
    14:00 +9°C° 0 mm 6 mps 753 mmHg 89%
    15:00 +9°C° 0 mm 6 mps 753 mmHg 88%
    16:00 +9°C° 0 mm 6 mps 753 mmHg 90%
    17:00 +8°C° 0 mm 6 mps 752 mmHg 91%
    18:00 +8°C° 0 mm 6 mps 752 mmHg 92%
    19:00 +8°C° 0 mm 6 mps 752 mmHg 92%
    20:00 +8°C° 0 mm 7 mps 751 mmHg 92%
    21:00 +9°C° 0 mm 7 mps 750 mmHg 91%
    22:00 +9°C° 0 mm 7 mps 750 mmHg 90%
    23:00 +9°C° 0 mm 7 mps 749 mmHg 89%

    26 January, Saturday

    Time Temperature Precipitation Wind Pressure Humidity
    00:00 +9°C° 0 mm 7 mps 748 mmHg 89%
    01:00 +9°C° 0.1 mm 7 mps 747 mmHg 88%
    02:00 +9°C° 0.1 mm 8 mps 745 mmHg 88%
    03:00 +9°C° 0.1 mm 8 mps 744 mmHg 87%
    04:00 +9°C° 0.2 mm 8 mps 743 mmHg 87%
    05:00 +9°C° 0.2 mm 8 mps 742 mmHg 88%
    06:00 +8°C° 0.2 mm 9 mps 741 mmHg 88%
    07:00 +7°C° 1.7 mm 8 mps 740 mmHg 90%
    08:00 +6°C° 1.7 mm 7 mps 740 mmHg 92%
    09:00 +5°C° 1.7 mm 7 mps 739 mmHg 94%
    10:00 +5°C° 1.4 mm 7 mps 739 mmHg 90%
    11:00 +4°C° 1.4 mm 7 mps 740 mmHg 87%
    12:00 +2°C° 1.4 mm 8 mps 740 mmHg 83%
    13:00 +2°C° 0 mm 9 mps 741 mmHg 81%
    14:00 +2°C° 0 mm 9 mps 742 mmHg 79%
    15:00 +3°C° 0 mm 10 mps 743 mmHg 77%
    16:00 +2°C° 0.1 mm 10 mps 744 mmHg 74%
    17:00 +1°C° 0.1 mm 10 mps 745 mmHg 72%
    18:00 0°C° 0.1 mm 9 mps 747 mmHg 70%
    19:00 0°C° 0 mm 9 mps 748 mmHg 68%
    20:00 -1°C° 0 mm 8 mps 748 mmHg 67%
    21:00 -1°C° 0 mm 8 mps 749 mmHg 65%
    22:00 -1°C° 0 mm 8 mps 750 mmHg 65%
    23:00 -1°C° 0 mm 8 mps 750 mmHg 66%

    27 January, Sunday

    Time Temperature Precipitation Wind Pressure Humidity
    00:00 -1°C° 0 mm 8 mps 750 mmHg 66%
    01:00 -1°C° 0.1 mm 8 mps 751 mmHg 66%
    02:00 -1°C° 0.1 mm 9 mps 751 mmHg 66%
    03:00 0°C° 0.1 mm 9 mps 752 mmHg 66%
    04:00 -1°C° 0.1 mm 9 mps 752 mmHg 67%
    05:00 -1°C° 0.1 mm 8 mps 752 mmHg 68%
    06:00 -1°C° 0.1 mm 8 mps 752 mmHg 69%
    07:00 -1°C° 0 mm 8 mps 753 mmHg 70%
    08:00 -1°C° 0 mm 7 mps 753 mmHg 71%
    09:00 -2°C° 0 mm 7 mps 753 mmHg 72%
    10:00 -1°C° 0 mm 7 mps 753 mmHg 69%
    11:00 0°C° 0 mm 8 mps 754 mmHg 67%
    12:00 +1°C° 0 mm 9 mps 754 mmHg 64%
    13:00 +1°C° 0 mm 8 mps 754 mmHg 65%
    14:00 +2°C° 0 mm 7 mps 753 mmHg 65%
    15:00 +2°C° 0 mm 7 mps 753 mmHg 66%
    16:00 +1°C° 0 mm 6 mps 753 mmHg 71%
    17:00 0°C° 0 mm 4 mps 753 mmHg 76%
    18:00 +1°C° 0 mm 3 mps 753 mmHg 81%
    19:00 +1°C° 0.1 mm 3 mps 754 mmHg 83%
    20:00 +1°C° 0.1 mm 3 mps 754 mmHg 84%
    21:00 +2°C° 0.1 mm 3 mps 754 mmHg 86%
    22:00 +1°C° 0 mm 3 mps 754 mmHg 87%
    23:00 0°C° 0 mm 3 mps 754 mmHg 88%

    28 January, Monday

    Time Temperature Precipitation Wind Pressure Humidity
    00:00 0°C° 0 mm 3 mps 754 mmHg 89%
    01:00 0°C° 0 mm 3 mps 754 mmHg 88%
    02:00 0°C° 0 mm 3 mps 754 mmHg 86%
    03:00 -1°C° 0 mm 3 mps 754 mmHg 85%
    04:00 -1°C° 0 mm 3 mps 754 mmHg 86%
    05:00 -1°C° 0 mm 3 mps 754 mmHg 86%
    06:00 -1°C° 0 mm 3 mps 754 mmHg 86%
    07:00 -1°C° 0 mm 3 mps 755 mmHg 86%
    08:00 -1°C° 0 mm 3 mps 755 mmHg 86%
    09:00 -1°C° 0 mm 3 mps 755 mmHg 86%
    10:00 0°C° 0 mm 3 mps 755 mmHg 81%
    11:00 +2°C° 0 mm 3 mps 755 mmHg 77%
    12:00 +3°C° 0 mm 3 mps 755 mmHg 72%
    13:00 +3°C° 0 mm 3 mps 755 mmHg 73%
    14:00 +3°C° 0 mm 3 mps 755 mmHg 74%
    15:00 +3°C° 0 mm 3 mps 755 mmHg 75%
    16:00 +3°C° 0 mm 3 mps 754 mmHg 81%
    17:00 +2°C° 0 mm 3 mps 754 mmHg 86%
    18:00 +2°C° 0 mm 3 mps 754 mmHg 91%
    19:00 +1°C° 0.2 mm 4 mps 754 mmHg 92%
    20:00 +3°C° 0.2 mm 4 mps 754 mmHg 93%
    21:00 +3°C° 0.2 mm 5 mps 753 mmHg 94%
    22:00 +3°C° 0 mm 5 mps 753 mmHg 93%
    23:00 +2°C° 0 mm 5 mps 753 mmHg 92%
    Show more